❰ Current Conditions

NWS Regional Weather Roundup - New England Area
REGIONAL WEATHER ROUNDUP
NATIONAL WEATHER SERVICE BOSTON/NORTON MA
300 AM EST MON NOV 29 2021

NOTE:  "FAIR" INDICATES FEW OR NO CLOUDS BELOW 12,000 FEET WITH NO 
SIGNIFICANT WEATHER AND/OR OBSTRUCTIONS TO VISIBILITY.

MAZALL-290900-
EASTERN MASSACHUSETTS
  
CITY           SKY/WX    TMP DP  RH WIND       PRES   REMARKS
BOSTON         CLOUDY    35  24  64 N6        29.82S WCI  30          
BEVERLY        CLOUDY    33  21  61 NW3       29.82R                  
LAWRENCE       CLOUDY    33  20  58 N3        29.85R                  
BEDFORD        CLOUDY    31  26  82 W3        29.81S                  
BLUE HILL      NOT AVBL                                               
NORWOOD        CLEAR     30  24  78 CALM      29.82S                  
MARSHFIELD     CLOUDY    36  28  75 CALM      29.81S                  
PLYMOUTH       CLOUDY    35  28  75 NW6       29.80S WCI  30          
TAUNTON        PTCLDY    27  24  89 CALM      29.80F                  
NEW BEDFORD    CLEAR     32  28  85 CALM      29.80S                  
$$

MAZALL-290900-
CAPE COD AND THE ISLANDS
  
CITY           SKY/WX    TMP DP  RH WIND       PRES   REMARKS
FALMOUTH       MOCLDY    34  32  93 CALM      29.80S                  
HYANNIS        CLOUDY    35  35 100 CALM      29.78S                  
CHATHAM        CLEAR     36  35  96 NW5       29.79S                  
PROVINCETOWN   CLOUDY    35  34  96 N3        29.80S                  
NANTUCKET      CLEAR     39  37  92 N6        29.77R FOG              
MARTHAS VNYRD  PTCLDY    35  35 100 N7        29.79S WCI  29          
$$
 
MAZALL-290900-
CENTRAL AND WESTERN MASSACHUSETTS
  
CITY           SKY/WX    TMP DP  RH WIND       PRES   REMARKS
WORCESTER      CLOUDY    31  26  82 E3        29.76F                  
FITCHBURG      CLOUDY    32  25  75 CALM      29.82S                  
ORANGE         CLOUDY    30  26  85 CALM      29.80S                  
SPRINGFIELD    CLOUDY    31  27  85 CALM      29.80F                  
WESTFIELD      CLOUDY    31  28  89 CALM      29.81F                  
NORTH ADAMS    NOT AVBL                                               
PITTSFIELD     CLOUDY    28  26  92 N5        29.75S WCI  23          
$$
 
RIZALL-290900-
RHODE ISLAND
  
CITY           SKY/WX    TMP DP  RH WIND       PRES   REMARKS
PROVIDENCE     MOCLDY    29  26  89 W3        29.81F                  
NEWPORT        PTCLDY    29  27  92 CALM      29.80S                  
BLOCK ISLAND   PTCLDY    36  32  85 NW8       29.80F WCI  30          
SMITHFIELD     PTCLDY    25  23  92 N3        29.79F                  
WESTERLY       CLOUDY    29  26  89 CALM      29.80F                  
$$
 
CTZALL-290900-
CONNECTICUT
  
CITY           SKY/WX    TMP DP  RH WIND       PRES   REMARKS
BRADLEY INTL   CLOUDY    31  28  89 CALM      29.81F                  
HARTFORD       CLOUDY    33  29  85 N6        29.81F WCI  28          
BRIDGEPORT     CLOUDY    35  31  85 NW3       29.80F                  
DANBURY        CLOUDY    33  29  85 W5        29.80F WCI  29          
GROTON         CLOUDY    30  27  88 N5        29.80F WCI  25          
NEW HAVEN      CLOUDY    35  32  88 CALM      29.80F                  
CHESTER        FAIR      32  30  93 MISG      29.79S                  
MERIDEN        CLOUDY    32  29  88 CALM      29.80F                  
WILLIMANTIC    CLOUDY    29  27  92 CALM      29.81S                  
OXFORD         CLOUDY    29  29 100 NE3       29.78F FOG              
$$

MEZ002-015-021-024-NHZ003-005-008-011-012-014-VTZ005-008-290900-
NORTHERN NEW ENGLAND
  
CITY           SKY/WX    TMP DP  RH WIND       PRES   REMARKS
PORTLAND ME    CLOUDY    31  20  63 N7        29.84S WCI  24          
BANGOR ME      CLOUDY    27  21  78 NE7       29.86S WCI  19          
CONCORD NH     CLOUDY    29  21  72 NW5       29.83R WCI  24          
MANCHESTER NH  CLOUDY    32  20  61 NW6       29.81R WCI  26          
NASHUA NH      CLOUDY    32  21  64 NW5       29.84R WCI  27          
PORTSMOUTH NH  CLOUDY    32  18  54 NW6       29.84S WCI  27          
JAFFREY NH     MOCLDY    29  23  78 CALM      29.77F                  
KEENE NH       CLEAR     27  24  89 N3        29.80F                  
BURLINGTON VT  PTCLDY    23  20  88 CALM      29.85S                  
MT. WASHINGTON SNOW      10  10 100 W23         N/A  VSB 1/16WCI -10  
$$

NYZ052-076-290900-
EASTERN NEW YORK
  
CITY           SKY/WX    TMP DP  RH WIND       PRES   REMARKS
ALBANY         CLOUDY    32  29  88 NW6       29.83R WCI  26          
NEW YORK CITY  CLOUDY    42  29  59 W9        29.81F                  
$$
 
ANZALL-290900-
MARINE OBSERVATIONS
  
STATION/POSITION TIME  TEMP    WIND        PRES    VSBY  WAVE
                       AIR SEA DIR/SP/G                  HT/PER
                 (UTC) (F)     (DEG/KT/KT) (MB)    (MI)  (FT/S)
BOSTON BUOY      0740      51  320/ 10/ 12 1010.1S
BUZZARDS BAY     0700                      1010.0R
NANTUCKET SOUND  0740   43 47  360/ 10/ 12 1008.5S
MASS BAY-STELLWA NOT AVBL
ISLE OF SHOALS   0700   36      10/  9/ 11 1009.6F
S OF BLOCK IS    0726      55                N/A           4/ 6
$$

......................KEY.........................
  SKY/WX - SKY CONDITION/PRESENT WEATHER
  TMP    - TEMPERATURE IN FAHRENHEIT
  DWPT   - DEWPOINT IN FAHRENHEIT
  RH     - RELATIVE HUMIDITY IN PERCENT
  WIND   - DIRECTION AND SPEED IN MPH
  PRES   - MEAN SEA LEVEL PRESSURE IN INCHES OF HG
  WCI    - WIND CHILL INDEX
  VSB    - VISIBILITY IN MILES
  HX     - HEAT INDEX
  TC     - TEMPERATURE IN CELSIUS
  VRB    - VARIABLE WIND DIRECTION
  N/A    - NOT AVAILABLE